Location: �chenoz-la-M�line
(47.6009°N, 6.1354°E)
Time: 12:43:46
(UTC+00:00)

Cosmos 1346 Rocket - Pass Details

Date: 27 January 2021
Orbit: 531 x 546 km, 81.2° (Epoch: 02 March)

Event Time Altitude Azimuth Distance (km) Brightness Sun altitude
Exits shadow 05:53:53 - 331° (NNW) 1,868 5.1 -12.5°
Reaches altitude 10° 05:54:01 10° 330° (NNW) 1,817 5.1 -12.5°
Maximum altitude 05:57:35 32° 267° (W) 959 3.5 -11.9°
Drops below altitude 10° 06:01:08 10° 204° (SSW) 1,809 5.4 -11.4°
Sets 06:03:27 0° 194° (SSW) 2,699 6.4 -11.0°
